Погода в Полтаве

Поиск расширенной информации на нашем сайте:

Полезная информация:

Новости сайта



02.01.2020
Опубликован Долгосрочный прогноз погоды по городам России и ближнего зарубежья на январь 2020 года.
Карты: Прогноз на январь и февраль 2020 года, Сравнение прогнозируемой аномалии приземной температуры воздуха на январь 2020 года по разным моделям.




Погода в Полтаве - сегодня

Время (UTC), дата Ветер
(°,м/с) 
Видим.   Явления Облачность Т
(°С)
Тd
(°С)
f(%) Тe
(°С)
Pmin
(гПа)
dP
(гПа)
Po
(мм)
O2
(г/м3)
Тmin Tmax R s Состояние
почвы
00 16.01.22 310 (СЗ) 10 км    10/10 600 м 
[Sc]
-0.2 -4.2 74 -2  1012.8  2.3  745  301           
03 16.01.22 260 (З) 10 км    10/10 600 м 
[Sc]
+0 -4.6 71 -1  1013.9  1.1  745  301           
06 16.01.22 270 (З) 10 км    10/10 600 м 
[Sc]
-0.1 -3.7 77 -2  1015.5  1.5  747  301  -0.8  -10.2    <0.5  мокрый или
старый снег
10-40% 
09 16.01.22 270 (З) 10 км  слаб. ливневой снег  10/10 600 м кучево-дожд. 
[Cb cap]
+0.1 -2.5 83 -2  1017  1.5  748  301           
12 16.01.22 280 (З) 10 км  {ливн. осадки}  9/9 600 м кучево-дожд. 
[Cb cap]
+0.5 -2.6 80 1017.1  0.2  748  301      0.0     
15 16.01.22 270 (З) 10 км  {ливн. осадки}  10/10 600 м кучево-дожд. 
[Cb cap]
+0.2 -2.7 81 +1  1018  0.8  748  302           
18 16.01.22 300 (СЗ) 10 км  {ливн. осадки}  10/10 600 м 
[Sc]
-0.3 -4.7 72 1017.9  -0.1  748  302    +0.7  0.0     
21 16.01.22 270 (З) 10 км    9/4 600 м средняя 
[Sc|Ac trans]
-0.9 -5.1 73 1017.3  -0.7  748  303           
00 17.01.22 220 (ЮЗ) 10 км    10/5 600 м средняя 
[Sc|Ac und]
-1 -4.6 77 -2  1015.3  -1.9  746  302           
03 17.01.22 220 (ЮЗ) 10 км    3/0 верхняя 
[Ci fib]
-2.5 -5.8 78 -4  1012.4  -3  744  303           
06 17.01.22 230 (ЮЗ) 10 км    9/0 средняя, верхняя 
[Ac trans|Ci fib]
-2.6 -5.9 78 -5  1009.4  -2.9  742  302  -2.9      <0.5  мокрый или
старый снег
10-40% 
09 17.01.22 170 (Ю) 10 км    10/10 600 м 
[Sc]
-0.3 -5 71 -1  1005  -4.2  739  299           
12 17.01.22 210 (ЮЗ) 10 км    10/10 600 м 
[Sc]
+0.8 -4.2 69 -3  1001.6  -3.2  736  296           
15 17.01.22 210 (ЮЗ) 10 км  {ливн. осадки}  10/10 600 м кучево-дожд. 
[Cb cap]
-0.2 -3.2 80 -3  998.9  -2.7  734  296           
18 17.01.22 200 (Ю) 10 км  {ливн. осадки}  10/10 600 м кучево-дожд. 
[Cb cap]
-0.1 -2.1 86 -1  996.7  -2.2  733  296    +1  0.2     
21 17.01.22 180 (Ю) 2000 м  слаб. ливневой снег  10/10 600 м кучево-дожд. 
[Cb cap]
-0.4 -1 96 -1  994.5  -2.2  731  295           
00 18.01.22 250 (З) 4000 м  слаб. ливневой снег  10/10 600 м кучево-дожд. 
[Cb cap]
-0.2 -0.8 96 -1  995.8  1.3  732  295         
03 18.01.22 290 (З) 10 км  {ливн. осадки}  9/9 600 м 
[Sc]
-1.5 -3.2 88 -2  996.7  0.8  733  297           
06 18.01.22 270 (З) 4000 м  слаб. ливневой снег  10/10 300 м кучево-дожд. 
[Cb cap]
-1.8 -2.6 94 -5  998.6  1.9  734  298  -1.9       
09 18.01.22 300 (СЗ) 10 км  позёмок{ливн. осадки}  9/9 600 м кучево-дожд. 
[Cb cap]
-4 -6.6 82 -9  1002.8  3.9  737  302           
12 18.01.22 290 (З) 2000 м  слаб. ливневой снег  9/8 600 м кучево-дожд., средняя 
[Cb cap|As op]
-4.8 -6.8 86 -10  1005.5  2.6  739  304      0.2     
15 18.01.22 300 (СЗ) 2000 м  слаб. ливневой снег  10/10 300 м кучево-дожд. 
[Cb cap]
-5.6 -7.4 87 -11  1008.9  3.3  741  306           
18 18.01.22 300 (СЗ) 2000 м  слаб. ливневой снег  10/10 300 м кучево-дожд. 
[Cb cap]
-5.8 -7.3 89 -11  1011.3  2.3  743  307    -1.7  0.8     
21 18.01.22 330 (СЗ) 10 км  позёмок{ливн. осадки}  10/10 600 м кучево-дожд. 
[Cb cap]
-5.4 -6.8 90 -10  1014.1  2.8  745  307           
00 19.01.22 330 (СЗ) 10 км  позёмок{ливн. осадки}  10/10 600 м кучево-дожд. 
[Cb cap]
-5 -7.1 85 -9  1016.7  2.5             
Время (UTC), дата Ветер
(°,м/с) 
Видим.   Явления Облачность Т
(°С)
Тd
(°С)
f(%) Тe
(°С)
Pmin
(гПа)
dP
(гПа)
Po
(мм)
O2
(г/м3)
Тmin Tmax R s Состояние
почвы

Для получения пояснительной информации подведите курсор к названию столбца.

ПОГОДА в Полтаве - архив

Всё, что Вы хотите узнать о погоде в Полтаве - удобно и подробно!

Выберите нужную дату (начиная с 1 января 2019* года) и нажмите кнопку "Найти".
Будут отображены архивные сводки погоды по пункту Полтава, начиная с указанной даты.


Отображать данные в формате CSV (для использования в таблицах Excel)


Внимание! Наш архив погоды предназначен исключительно для личного некоммерческого использования в познавательных целях. Если Вам необходимы официальные справки о состоянии погоды (для производственных, юридических, коммерческих и т.п. целей), обращайтесь в органы Росгидромета.

*Примечание: данная дата относится к архиву по метеостанциям СССР (Россия, СНГ, Балтия).
Архив по метеостанциям Зарубежной Европы и Азии (кроме Китая) хранится 10 дней, по другим регионам земного шара (Китай, Африка, Америка, Австралия, Океания) - 1 день.

Полтава - район местоположения метеостанции


Название, широта, долгота, высота метеостанции:
Полтава 49.6°ш. 34.6°д. 160 м над ур. моря [Украина]

Дополнительная информация

В oтличие oт бoльшинства пoгoдных сайтoв мы публикуем пoдрoбную метеoинфoрмацию в детальнoм прoфессиoнальнoм фoрмате.

Характеристики температуры и влажнoсти вoздуха измеряются на высoте 2 м в тени вдали oт зданий и деревьев.
Скoрoсть ветра измеряется на высoте 10 м (на урoвне рoста челoвека скoрoсть ветра ниже в 1.5-2 раза). Если метеoстанция нахoдится в гoрoде или в лесу, тo скoрoсть ветра занижена на 2-4 м/с пo сравнению с oткрытым местoм. Скoрoсть ветра над акватoриями крупных рек и oзёр, а также на вершинах хoлмoв на 2-5 м/с выше, чем в oбычных услoвиях.
Атмoсфернoе давление в разных тoчках местнoсти мoжет значительнo oтличаться oт давления на метеoстанции, в зависимoсти oт услoвий рельефа (при пoдъёме на 10 м давление пoнижается примернo на 1 мм рт.ст.).